Probability
0 0 0 0 0 0 0 0 0 0 0 0 0 0 0 0 0 0 0 0 0 0 0 0 0 0 0 0 0 1 1 0 1 4 11 18 23 30 32 30 25 21 17 13
0 0 0 0 0 0 0 0 0 0 0 0 0 0 0 0 0 0 0 0 0 0 0 0 0 0 0 0 0 1 2 1 1 3 7 13 19 25 29 26 19 16 15 14
0 0 0 0 0 0 0 0 0 0 0 0 0 0 0 0 0 0 0 0 0 0 0 0 0 0 0 0 0 1 1 1 1 2 2 6 11 17 21 20 14 11 12 13
0 0 0 0 0 0 0 0 0 0 0 0 0 0 0 0 0 0 0 0 0 0 0 0 0 0 0 0 0 0 0 0 1 1 1 2 4 8 13 15 14 10 9 10
0 0 0 0 0 0 0 0 0 0 0 0 0 0 0 0 0 0 0 0 0 0 0 0 0 0 0 0 0 0 0 0 0 0 1 1 2 3 6 9 10 10 9 8
0 0 0 0 0 0 0 0 0 0 0 0 0 0 0 0 0 0 0 0 0 0 0 0 0 0 0 0 0 0 0 0 0 0 1 2 2 3 3 4 6 7 9 10
0 0 0 0 0 0 0 0 0 0 0 0 0 0 0 0 0 0 0 0 0 0 0 0 0 0 0 0 0 0 0 0 0 0 1 2 2 2 2 3 3 6 9 11
0 0 0 0 0 0 0 0 0 0 0 0 0 0 0 0 0 0 0 0 0 0 0 0 0 0 0 0 0 0 0 0 0 0 0 1 1 1 1 2 4 5 7 8
0 0 0 0 0 0 0 0 0 0 0 0 0 0 0 0 0 0 0 0 0 0 0 0 0 0 0 0 0 0 0 0 0 0 0 0 0 0 1 2 4 5 4 4
0 0 0 0 0 0 0 0 0 0 0 0 0 0 0 0 0 0 0 0 0 0 0 0 0 0 0 0 0 0 0 0 0 0 0 0 0 0 0 1 3 2 1 1
0 0 0 0 0 0 0 0 0 0 0 0 0 0 0 0 0 0 0 0 0 0 0 0 0 0 0 0 0 0 0 0 0 0 0 0 0 0 0 0 1 0 0 0
0 0 0 0 0 0 0 0 0 0 0 0 0 0 0 0 0 0 0 0 0 0 0 0 0 0 0 0 0 0 0 0 0 0 0 0 0 0 0 0 0 0 0 0
0 0 0 0 0 0 0 0 0 0 0 0 0 0 0 0 0 0 0 0 0 0 0 0 0 0 0 0 0 0 0 0 0 0 0 0 0 0 0 0 0 0 0 0
0 0 0 0 0 0 0 0 0 0 0 0 0 0 0 0 0 0 0 0 0 0 0 0 0 0 0 0 0 0 0 0 0 0 0 0 0 0 0 0 0 0 0 0
0 0 0 0 0 0 0 0 0 0 0 0 0 0 0 0 0 0 0 0 0 0 0 0 0 0 0 0 0 0 0 0 0 0 0 0 0 0 0 0 0 0 0 0
0 0 0 0 0 0 0 0 0 0 0 0 0 0 0 0 0 0 0 0 0 0 0 0 0 0 0 0 0 0 0 0 0 0 0 0 0 0 0 0 0 0 0 0
0 0 0 0 0 0 0 0 0 0 0 0 0 0 0 0 0 0 0 0 0 0 0 0 0 0 0 0 0 0 0 0 0 0 0 0 0 0 0 0 0 0 0 0
0 0 0 0 0 0 0 0 0 0 0 0 0 0 0 0 0 0 0 0 0 0 0 0 0 0 0 0 0 0 0 0 0 0 0 0 0 0 0 0 0 0 0 0
0 0 0 0 0 0 0 0 0 0 0 0 0 0 0 0 0 0 0 0 0 0 0 0 0 0 0 0 0 0 0 0 0 0 0 0 0 0 0 0 0 0 0 0
0 0 0 0 0 0 0 0 0 0 0 0 0 0 0 0 0 0 0 0 0 0 0 0 0 0 0 0 0 0 0 0 0 0 0 0 0 0 0 0 0 0 0 0
0 0 0 0 0 0 0 0 0 0 0 0 0 0 0 0 0 0 0 0 0 0 0 0 0 0 0 0 0 0 0 0 0 0 0 0 0 0 0 0 0 0 0 0
0 0 0 0 0 0 0 0 0 0 0 0 0 0 0 0 0 0 0 0 0 0 0 0 0 0 0 0 0 0 0 0 0 0 0 0 0 0 0 0 0 0 0 0
0 0 0 0 0 0 0 0 0 0 0 0 0 0 0 0 0 0 0 0 0 0 0 0 0 0 0 0 0 0 0 0 0 0 0 0 0 0 0 0 0 0 0 0
0 0 0 0 0 0 0 0 0 0 0 0 0 0 0 0 0 0 0 0 0 0 0 0 0 0 0 0 0 0 0 0 0 0 0 0 0 0 0 0 0 0 0 0
0 0 0 0 0 0 0 0 0 0 0 0 0 0 0 0 0 0 0 0 0 0 0 0 0 0 0 0 0 0 0 0 0 0 0 0 0 0 0 0 0 0 0 0
0 0 0 0 0 0 0 0 0 0 0 0 0 0 0 0 0 0 0 0 0 0 0 0 0 0 0 0 0 0 0 0 0 0 0 0 0 0 0 0 0 0 0 0
Wind_Speed
7 9 5 3 2 2 4 4 4 3 3 8 9 7 5 7 10 12 11 11 12 11 10 10 10 10 10 10 10 9 9 9 7 4 3 3 4 4 4 5 7 7 6 6
8 6 4 3 5 6 5 5 3 3 5 6 6 6 3 5 8 8 9 10 12 13 13 13 12 11 11 11 10 9 9 9 8 6 4 3 3 3 4 4 5 6 6 5
8 2 4 5 7 5 3 3 3 3 4 5 3 3 5 4 5 8 9 8 10 12 13 14 13 12 11 11 11 10 10 10 9 8 5 4 2 2 2 3 4 5 6 6
6 4 5 6 5 3 0 1 1 4 4 2 1 0 4 6 7 10 11 11 11 11 11 11 12 13 12 12 10 10 10 9 8 8 6 5 3 3 3 2 3 4 5 6
4 3 5 5 3 3 1 3 3 3 5 3 5 2 4 5 7 10 11 11 11 11 11 12 12 12 12 11 10 10 10 9 9 8 7 5 3 3 2 2 3 3 4 5
4 2 3 1 2 2 1 4 6 6 5 4 3 2 4 4 6 9 10 11 12 12 11 11 11 11 11 11 10 10 10 10 9 9 8 6 5 4 3 2 2 2 2 2
6 6 6 3 5 6 7 5 4 5 5 1 1 2 2 4 4 5 9 11 11 10 10 11 12 12 12 12 12 11 11 11 10 9 8 7 6 5 4 3 2 1 1 2
3 4 6 5 2 1 3 5 5 2 2 2 2 0 4 4 4 5 6 7 9 10 9 10 10 10 10 11 11 11 12 11 11 10 9 8 7 4 3 3 2 1 1 2
5 1 2 3 3 2 3 3 3 6 2 1 2 3 4 2 5 6 7 8 9 10 10 10 10 9 10 10 10 11 11 10 11 10 9 8 8 7 5 4 2 2 1 1
6 4 3 4 6 7 5 4 4 4 2 2 3 2 3 5 6 7 8 9 9 10 10 10 9 9 9 8 8 10 10 10 9 9 8 8 8 7 6 4 4 3 2 1
3 5 3 4 4 4 4 4 5 4 3 3 2 4 4 4 4 5 8 8 8 9 9 9 9 8 8 8 8 9 9 9 10 9 9 9 8 7 6 6 6 4 3 3
3 6 2 2 2 1 2 2 4 3 1 2 2 6 4 2 3 4 6 8 8 8 8 8 8 8 8 8 8 9 9 9 9 9 8 8 8 8 8 8 7 6 5 4
5 6 4 4 5 3 3 2 3 5 4 3 2 5 3 2 3 4 5 7 7 8 8 7 7 8 8 8 7 8 8 9 9 8 8 9 9 9 8 8 8 7 6 5
6 5 5 4 4 2 1 1 3 4 3 2 4 5 4 4 4 5 5 6 6 7 7 7 7 7 7 7 7 7 8 8 9 8 9 9 9 8 8 8 8 7 7 6
5 5 2 1 1 2 1 1 2 3 5 5 4 4 5 4 3 4 4 5 6 7 7 7 7 7 7 7 7 7 7 8 8 8 8 9 8 8 8 8 8 7 8 8
4 4 2 2 1 1 1 2 2 2 3 3 2 5 4 2 1 2 4 5 5 6 7 7 7 7 7 7 7 6 7 7 7 7 8 8 9 8 8 8 8 8 8 8
3 4 3 1 2 3 4 5 4 3 3 5 5 5 2 2 2 2 3 4 5 6 6 6 6 6 6 6 5 6 6 6 6 7 7 8 8 8 8 8 8 8 8 7
6 5 4 2 1 3 6 2 4 4 3 5 4 3 4 4 2 2 2 3 5 5 5 6 6 6 5 5 5 5 5 5 6 6 7 7 8 8 8 8 8 8 6 6
4 7 4 3 1 6 5 3 5 4 4 5 5 3 3 2 2 3 3 2 3 3 4 4 4 4 4 5 5 5 5 5 6 6 7 7 7 7 7 8 7 6 6 7
5 5 6 4 2 4 6 2 3 3 4 4 7 6 5 5 1 4 3 2 2 3 3 4 4 3 4 5 4 4 5 5 5 5 5 5 6 6 7 7 6 5 5 6
2 4 4 4 3 8 6 3 5 3 7 4 7 7 7 7 6 4 2 1 2 2 3 4 4 4 4 4 3 4 5 5 4 4 4 5 6 6 6 6 6 6 6 6
7 5 4 4 2 8 5 7 8 9 3 5 7 7 7 6 3 2 1 1 2 3 4 4 4 4 4 4 3 4 4 4 3 4 5 6 6 6 6 6 6 6 6 7
7 8 7 9 8 5 6 7 5 5 5 6 6 6 7 5 4 3 1 1 2 3 3 3 3 4 4 4 3 3 4 2 2 4 5 4 5 6 6 6 6 5 6 5
4 3 4 4 7 5 6 4 4 6 6 6 6 6 7 6 5 3 2 1 2 2 3 3 3 4 4 4 3 3 3 1 2 3 3 3 4 5 5 5 5 5 5 5
6 7 4 5 6 3 4 7 7 6 5 6 5 6 7 7 5 4 3 2 1 2 2 2 3 3 4 4 3 3 2 2 2 2 2 3 3 3 4 4 3 3 3 3
7 10 9 8 8 7 7 7 9 9 8 8 8 6 5 6 5 4 3 2 1 1 1 2 3 3 4 4 4 3 2 1 1 1 1 1 1 1 2 2 3 5 5 7
Wind_Direction
29 55 39 1 35 115 111 109 103 83 95 79 89 86 39 18 28 21 11 2 357 352 343 345 346 344 341 341 339 336 335 331 330 318 296 265 241 227 217 217 216 211 205 200
49 37 350 35 50 72 91 100 93 80 90 102 110 81 34 29 26 14 5 357 353 350 351 353 352 348 344 339 337 336 337 332 329 317 299 272 261 242 221 213 211 204 197 198
95 354 4 60 49 60 64 120 150 138 87 79 116 47 8 357 2 6 9 358 354 354 349 349 348 345 343 341 339 336 332 331 329 324 310 297 272 258 234 213 209 206 190 189
74 17 45 59 45 47 16 330 162 143 119 68 22 217 347 336 344 359 358 354 350 346 345 344 346 344 343 340 336 334 331 330 329 329 324 311 291 271 261 241 220 201 190 186
69 32 48 46 8 8 316 20 75 107 116 79 27 83 313 338 351 345 342 345 344 343 343 343 345 342 340 340 341 339 335 335 336 337 335 322 312 294 285 247 214 204 197 189
52 25 51 15 16 34 31 71 61 55 71 55 342 64 326 333 321 321 328 336 338 339 341 343 345 343 343 343 345 344 344 343 344 342 341 339 333 320 306 277 240 218 205 194
27 9 1 20 25 15 46 75 40 11 23 304 316 90 275 281 299 307 316 326 331 335 339 344 348 344 343 345 347 348 348 347 348 348 347 343 340 333 319 302 270 236 209 207
93 4 351 13 45 7 48 99 133 188 223 286 354 303 259 268 304 311 317 324 332 338 338 341 344 340 338 343 346 348 348 348 351 353 351 350 349 341 330 324 312 275 238 223
130 144 334 22 28 73 73 69 130 121 110 15 314 308 312 311 332 333 337 338 335 333 335 335 335 336 337 340 344 346 346 347 350 353 353 355 355 353 351 352 347 332 317 261
128 119 342 338 38 34 94 121 80 87 105 321 316 308 284 303 315 326 330 328 325 328 332 333 333 334 334 336 340 346 348 347 346 351 355 360 356 357 357 1 6 0 352 355
99 111 9 30 39 353 27 57 82 89 121 139 308 289 239 248 288 305 309 314 319 324 325 326 330 331 332 340 347 349 348 350 350 352 353 357 356 359 3 9 8 6 15 28
102 106 77 330 300 284 100 102 129 122 107 128 164 271 277 254 281 289 303 314 320 322 323 325 329 336 343 346 347 349 349 350 350 352 355 358 359 5 11 11 8 9 19 28
125 102 81 356 344 2 59 80 102 112 108 129 163 272 295 321 312 304 305 315 321 328 332 336 339 341 341 342 345 348 349 349 349 354 1 5 6 10 11 10 10 11 19 26
105 93 138 169 217 209 95 106 133 116 125 185 222 256 294 303 305 311 316 318 324 330 334 338 339 338 337 339 345 348 348 350 353 358 3 7 5 5 6 10 15 18 21 27
92 98 110 139 152 146 178 202 168 168 181 185 229 237 261 262 266 291 310 322 332 336 337 339 337 334 336 341 344 349 348 352 354 359 4 3 0 4 10 14 15 21 27 30
71 107 87 32 27 102 290 259 207 192 182 200 230 260 251 237 233 295 315 328 330 329 331 334 337 339 340 339 339 344 347 349 354 3 3 1 3 8 12 13 17 24 26 27
81 110 100 347 345 21 289 237 197 203 198 180 207 238 202 201 236 265 296 316 318 322 325 329 328 327 327 329 334 341 340 345 360 4 3 3 4 9 10 16 23 24 22 26
117 97 106 107 66 265 250 235 184 192 219 204 215 223 194 203 220 260 260 289 308 319 324 323 322 322 324 330 342 344 350 356 2 5 3 2 4 8 11 20 23 20 21 25
115 124 111 113 182 284 288 204 169 173 251 206 196 193 169 135 46 321 274 267 282 301 308 304 306 306 320 336 342 352 357 359 6 4 1 2 6 14 17 19 16 17 25 29
64 89 108 123 167 246 252 205 151 109 276 222 178 176 162 127 107 271 275 291 310 325 319 320 325 334 344 341 349 7 360 4 3 356 358 4 14 22 21 18 16 17 27 30
82 63 111 154 222 261 244 157 120 146 246 202 173 172 164 177 200 230 272 294 332 332 332 343 349 349 336 335 360 12 5 359 349 1 16 22 19 26 26 25 22 18 23 30
169 158 177 153 203 262 194 144 178 211 203 165 169 170 175 195 207 217 227 307 349 351 349 354 353 341 336 350 11 10 358 342 7 29 34 30 25 28 29 31 27 22 22 30
190 186 182 186 211 237 192 195 203 167 167 175 170 175 168 172 185 187 197 302 339 348 346 348 346 339 344 354 9 3 337 350 48 46 39 33 33 33 31 33 30 26 24 29
239 158 158 243 261 243 223 219 187 180 179 175 168 162 162 168 177 180 189 264 330 337 341 346 356 355 343 341 350 343 338 36 76 58 42 36 39 34 29 30 30 31 25 24
213 166 188 250 267 265 237 208 190 177 160 150 153 164 169 166 174 180 191 225 277 314 326 346 350 333 324 330 340 348 9 74 76 60 50 44 44 43 33 31 26 25 18 14
192 176 176 217 214 189 223 202 171 162 170 167 159 161 169 171 178 176 191 215 237 282 319 336 336 328 322 329 335 344 8 82 106 69 43 40 41 41 37 29 21 26 32 33